Weather History for Huntsville, AL

Change the Weather History Date:

Friday, March 22, 2013

  Actual Average Record
Temperature  
Mean Temperature 44 °F 55 °F  
Max Temperature 48 °F 67 °F 88 °F (1907)
Min Temperature 39 °F 44 °F 22 °F (1986)
Degree Days  
Heating Degree Days 21 10  
Month to date heating degree days 390 286  
Since 1 July heating degree days 2662 2738  
Cooling Degree Days 0 0  
Month to date cooling degree days 0 0  
Year to date cooling degree days 6 1  
Moisture  
Dew Point 32 °F    
Average Humidity 66    
Maximum Humidity 79    
Minimum Humidity 53    
Precipitation  
Precipitation T in 0.17 in 2.05 in (1993)
Month to date precipitation 2.65 3.67  
Year to date precipitation 14.53 13.40  
Snow  
Snow 0.00 in - - ()
Month to date snowfall T  
Since 1 July snowfall 0.7  
Snow Depth 0.00 in    
Sea Level Pressure  
Sea Level Pressure 29.99 in    
Wind  
Wind Speed 8 mph (ESE)    
Max Wind Speed 16 mph    
Max Gust Speed 18 mph    
Visibility 10 miles    
Events Rain    
T = Trace of Precipitation, MM = Missing Value Source: NWS Daily Summary

Daily Weather History Graph

Daily Weather History Graph

Search for Another Location

Airport:

Trip Planner

Search our weather history database for the weather conditions in past years. The results will help you decide how hot, cold, wet, or windy it might be!

Date:

Astronomy

Mar. 22, 2013 Rise Set
Actual Time 6:47 AM CDT 7:00 PM CDT
Civil Twilight 6:22 AM CDT 7:25 PM CDT
Nautical Twilight 5:53 AM CDT 7:55 PM CDT
Astronomical Twilight 5:23 AM CDT 8:25 PM CDT
Moon 2:37 PM CDT (3/22) 3:37 AM CDT (3/22)
Length of Visible Light 13h 03m
Length of Day
12h 12m
Waxing Gibbous, 77% of the Moon is Illuminated
Mar 22
Waxing Gibbous
Mar 27
Full
Apr 2
Last Quarter
Apr 10
New
Apr 18
First Quarter

Hourly Weather History & Observations

Time (CDT) Temp. Windchill Dew Point Humidity Pressure Visibility Wind Dir Wind Speed Gust Speed Precip Events Conditions
12:53 AM 41.0 °F - 28.0 °F 60% 30.01 in 10.0 mi Calm Calm - 0.00 in   Overcast
1:53 AM 41.0 °F - 32.0 °F 70% 30.00 in 10.0 mi Calm Calm - 0.00 in Rain Light Rain
2:53 AM 39.9 °F 37.8 °F 33.1 °F 77% 29.99 in 10.0 mi SSW 3.5 mph - 0.00 in Rain Light Rain
3:53 AM 39.0 °F 35.7 °F 34.0 °F 82% 29.99 in 10.0 mi SE 4.6 mph - 0.00 in Rain Light Rain
4:53 AM 39.0 °F 34.8 °F 34.0 °F 82% 29.98 in 10.0 mi SE 5.8 mph - 0.00 in   Overcast
5:53 AM 39.0 °F 35.7 °F 33.1 °F 79% 29.99 in 10.0 mi East 4.6 mph - N/A   Overcast
6:53 AM 39.0 °F 33.4 °F 32.0 °F 76% 29.99 in 10.0 mi East 8.1 mph - N/A   Overcast
7:53 AM 39.9 °F 35.8 °F 30.9 °F 70% 30.01 in 10.0 mi SE 5.8 mph - N/A   Overcast
8:53 AM 41.0 °F 35.8 °F 28.9 °F 62% 30.03 in 10.0 mi SE 8.1 mph - N/A   Overcast
9:53 AM 42.1 °F 36.1 °F 28.9 °F 60% 30.04 in 10.0 mi SSE 10.4 mph - N/A   Overcast
10:53 AM 43.0 °F 38.2 °F 28.9 °F 58% 30.04 in 10.0 mi SE 8.1 mph - N/A   Overcast
11:53 AM 45.0 °F 38.2 °F 32.0 °F 60% 30.02 in 10.0 mi SE 15.0 mph - 0.00 in   Mostly Cloudy
12:53 PM 45.0 °F 41.8 °F 30.9 °F 58% 30.03 in 10.0 mi East 5.8 mph - N/A   Overcast
1:53 PM 46.0 °F 42.5 °F 30.0 °F 54% 30.00 in 10.0 mi ESE 6.9 mph - N/A   Overcast
2:53 PM 46.9 °F - 30.9 °F 54% 29.98 in 10.0 mi ESE 6.9 mph - N/A   Overcast
3:53 PM 48.0 °F - 32.0 °F 54% 29.97 in 10.0 mi East 9.2 mph - N/A   Overcast
4:53 PM 48.0 °F - 32.0 °F 54% 29.96 in 10.0 mi ESE 9.2 mph - N/A   Overcast
5:53 PM 48.0 °F - 32.0 °F 54% 29.97 in 10.0 mi ESE 10.4 mph - N/A   Overcast
6:27 PM 46.4 °F 42.4 °F 33.8 °F 62% 29.97 in 10.0 mi ESE 8.1 mph - N/A   Overcast
6:53 PM 46.9 °F - 33.1 °F 59% 29.97 in 10.0 mi ESE 6.9 mph - N/A   Overcast
7:32 PM 46.4 °F 43.5 °F 33.8 °F 62% 29.98 in 10.0 mi ESE 5.8 mph - N/A   Overcast
7:42 PM 46.4 °F 42.4 °F 33.8 °F 62% 29.97 in 10.0 mi East 8.1 mph - N/A   Overcast
7:53 PM 46.9 °F - 34.0 °F 61% 29.98 in 10.0 mi East 6.9 mph - N/A   Overcast
8:53 PM 48.0 °F - 34.0 °F 58% 29.98 in 10.0 mi SE 8.1 mph - 0.00 in   Overcast
9:53 PM 48.0 °F - 34.0 °F 58% 29.97 in 10.0 mi SE 9.2 mph - N/A   Overcast
10:53 PM 48.0 °F - 34.0 °F 58% 29.99 in 10.0 mi ESE 6.9 mph - N/A   Overcast
11:04 PM 48.2 °F - 35.6 °F 62% 29.98 in 10.0 mi ESE 6.9 mph - N/A   Overcast
11:53 PM 46.0 °F 41.0 °F 39.9 °F 79% 29.97 in 10.0 mi ESE 10.4 mph - 0.00 in   Overcast